Weather History for KRXE - April, 2013

Change the Weather History Date:

Sunday, April 21, 2013

  Actual Average Record
Temperature  
Mean Temperature 47 °F 45 °F  
Max Temperature 57 °F 58 °F 76 °F (2012)
Min Temperature 37 °F 32 °F 19 °F (2008)
Degree Days  
Heating Degree Days 18 20  
Month to date heating degree days 496 470  
Since 1 July heating degree days 7156 7399  
Cooling Degree Days 0 0  
Month to date cooling degree days 0 0  
Year to date cooling degree days 0 0  
Moisture  
Dew Point 27 °F    
Average Humidity 48    
Maximum Humidity 70    
Minimum Humidity 26    
Precipitation  
Precipitation 0.00 in 0.05 in - ()
Month to date precipitation 0.57 1.00  
Year to date precipitation 3.01 3.63  
Sea Level Pressure  
Sea Level Pressure 29.98 in    
Wind  
Wind Speed 13 mph (SSW)    
Max Wind Speed 32 mph    
Max Gust Speed 45 mph    
Visibility 10 miles    
Events      
T = Trace of Precipitation, MM = Missing Value Source: NWS Daily Summary

Daily Weather History Graph

Daily Weather History Graph

Search for Another Location

Airport or City:

Trip Planner

Search our weather history database for the weather conditions in past years. The results will help you decide how hot, cold, wet, or windy it might be!

Date:

Astronomy

Apr. 21, 2013 Rise Set
Actual Time 6:33 AM MDT 8:18 PM MDT
Civil Twilight 6:03 AM MDT 8:49 PM MDT
Nautical Twilight 5:26 AM MDT 9:26 PM MDT
Astronomical Twilight 4:46 AM MDT 10:06 PM MDT
Moon 4:00 PM MDT (4/21) 4:06 AM MDT (4/21)
Length of Visible Light 14h 45m
Length of Day
13h 44m
Waxing Gibbous, 80% of the Moon is Illuminated
Apr 21
Waxing Gibbous
Apr 25
Full
May 2
Last Quarter
May 9
New
May 17
First Quarter

Hourly Weather History & Observations

Time (MDT) Temp. Windchill Dew Point Humidity Pressure Visibility Wind Dir Wind Speed Gust Speed Precip Events Conditions
12:53 AM 39.9 °F 33.4 °F 28.9 °F 65% 30.04 in 10.0 mi SSW 10.4 mph - N/A   Clear
1:53 AM 39.0 °F 33.4 °F 28.9 °F 67% 30.06 in 10.0 mi South 8.1 mph - N/A   Clear
2:53 AM 39.0 °F 32.8 °F 28.0 °F 65% 30.05 in 10.0 mi South 9.2 mph - N/A   Clear
3:53 AM 37.9 °F 30.9 °F 28.0 °F 68% 30.06 in 10.0 mi SSW 10.4 mph - N/A   Clear
4:53 AM 37.9 °F 30.5 °F 28.0 °F 68% 30.06 in 10.0 mi South 11.5 mph - N/A   Clear
5:53 AM 37.9 °F 29.6 °F 27.0 °F 65% 30.06 in 10.0 mi South 13.8 mph - N/A   Clear
6:53 AM 37.0 °F 28.9 °F 28.0 °F 70% 30.07 in 10.0 mi SSW 12.7 mph - N/A   Clear
7:53 AM 37.9 °F 30.9 °F 28.0 °F 68% 30.09 in 10.0 mi SSW 10.4 mph - N/A   Partly Cloudy
8:53 AM 39.0 °F 32.3 °F 30.0 °F 70% 30.10 in 10.0 mi SSW 10.4 mph - N/A   Clear
9:53 AM 41.0 °F 35.2 °F 30.0 °F 65% 30.09 in 10.0 mi SSW 9.2 mph - N/A   Partly Cloudy
10:53 AM 44.1 °F 36.8 °F 30.0 °F 58% 30.07 in 10.0 mi SSW 16.1 mph 21.9 mph N/A   Mostly Cloudy
11:53 AM 46.9 °F - 28.9 °F 50% 30.05 in 10.0 mi SSW 17.3 mph 21.9 mph N/A   Overcast
12:53 PM 51.1 °F - 28.0 °F 41% 30.01 in 10.0 mi SSW 15.0 mph 23.0 mph N/A   Mostly Cloudy
1:53 PM 54.0 °F - 28.0 °F 37% 29.96 in 10.0 mi SSW 15.0 mph 27.6 mph N/A   Clear
2:53 PM 55.0 °F - 23.0 °F 29% 29.92 in 10.0 mi SW 16.1 mph 25.3 mph N/A   Overcast
3:53 PM 53.1 °F - 24.1 °F 32% 29.89 in 10.0 mi SW 10.4 mph 25.3 mph N/A   Overcast
4:53 PM 55.0 °F - 23.0 °F 29% 29.85 in 10.0 mi SW 23.0 mph 36.8 mph N/A   Overcast
5:53 PM 55.9 °F - 23.0 °F 28% 29.83 in 10.0 mi SW 27.6 mph 36.8 mph N/A   Overcast
6:53 PM 55.9 °F - 21.0 °F 26% 29.82 in 10.0 mi SW 28.8 mph 39.1 mph N/A   Overcast
7:53 PM 54.0 °F - 21.9 °F 29% 29.82 in 10.0 mi WSW 19.6 mph 27.6 mph N/A   Overcast
8:53 PM 48.9 °F - 23.0 °F 36% 29.84 in 10.0 mi WSW 10.4 mph - N/A   Clear
9:53 PM 48.0 °F - 21.9 °F 36% 29.89 in 10.0 mi North 10.4 mph 18.4 mph N/A   Overcast
10:53 PM 41.0 °F 39.0 °F 28.9 °F 62% 29.94 in 10.0 mi ESE 3.5 mph - N/A   Clear
11:53 PM 39.9 °F 34.5 °F 28.9 °F 65% 29.94 in 10.0 mi NNE 8.1 mph - N/A   Clear